GW4351 Weather Reports


Display with metric or nautical units.
time (UTC)temp
F
wind
direction
speed
MPH
gust
MPH
rain 1hr
in
rain 24hr
in
rain mn
in
humidity
%
barometer
mb
20260504194612 72 317 5.0 11.0 0.00 0.00 0.00 24 1008.2
20260504194059 73 327 4.0 9.0 0.00 0.00 0.00 22 1008.1
20260504193559 73 295 2.0 12.0 0.00 0.00 0.00 19 1007.9
20260504193113 73 261 3.0 12.0 0.00 0.00 0.00 19 1008.0
20260504192558 74 275 6.0 12.0 0.00 0.00 0.00 18 1007.9
20260504192104 73 266 4.0 11.0 0.00 0.00 0.00 19 1007.8
20260504191608 72 261 7.0 11.0 0.00 0.00 0.00 18 1007.8
20260504191059 72 311 4.0 12.0 0.00 0.00 0.00 19 1007.8
20260504190559 71 273 4.0 12.0 0.00 0.00 0.00 20 1008.0
20260504190116 72 268 6.0 13.0 0.00 0.00 0.00 20 1007.9
20260504185600 71 272 6.0 13.0 0.00 0.00 0.00 21 1008.0
20260504185059 72 277 10.0 17.0 0.00 0.00 0.00 20 1008.0
20260504184626 73 271 10.0 17.0 0.00 0.00 0.00 20 1008.0
20260504184059 74 293 9.0 17.0 0.00 0.00 0.00 19 1008.1
20260504183602 74 264 10.0 17.0 0.00 0.00 0.00 21 1008.2
20260504183100 73 287 9.0 17.0 0.00 0.00 0.00 23 1008.3
20260504182559 73 291 12.0 18.0 0.00 0.00 0.00 24 1008.3
20260504182101 73 330 13.0 18.0 0.00 0.00 0.00 24 1008.4
20260504181603 71 265 11.0 17.0 0.00 0.00 0.00 24 1008.6
20260504181102 71 283 11.0 17.0 0.00 0.00 0.00 24 1008.7
20260504180604 71 281 9.0 19.0 0.00 0.00 0.00 25 1008.7
20260504175559 70 245 10.0 18.0 0.00 0.00 0.00 25 1008.8
20260504175059 71 239 11.0 19.0 0.00 0.00 0.00 26 1008.9
20260504174602 71 279 12.0 20.0 0.00 0.00 0.00 26 1009.0
20260504174102 70 267 12.0 21.0 0.00 0.00 0.00 27 1009.1
20260504173559 69 251 13.0 21.0 0.00 0.00 0.00 27 1009.2
20260504173101 69 284 12.0 21.0 0.00 0.00 0.00 27 1009.3
20260504172601 69 292 10.0 19.0 0.00 0.00 0.00 28 1009.5
20260504172100 68 283 10.0 19.0 0.00 0.00 0.00 28 1009.6
20260504171613 67 287 12.0 19.0 0.00 0.00 0.00 28 1009.6
20260504171102 67 275 9.0 15.0 0.00 0.00 0.00 29 1009.7
20260504170603 66 271 9.0 15.0 0.00 0.00 0.00 29 1009.8
20260504160106 64 281 6.0 16.0 0.00 0.00 0.00 30 1009.7
20260504151058 63 286 7.0 11.0 0.00 0.00 0.00 29 1009.8
20260504150558 63 284 7.0 11.0 0.00 0.00 0.00 29 1009.8
20260504141058 60 272 7.0 9.0 0.00 0.00 0.00 28 1010.0
20260504140558 59 261 5.0 8.0 0.00 0.00 0.00 29 1010.0
20260504140112 58 260 4.0 8.0 0.00 0.00 0.00 31 1009.9
20260504130602 46 0 0.0 1.0 0.00 0.00 0.00 57 1009.9
20260504120120 44 133 0.0 1.0 0.00 0.00 0.00 56 1009.6
20260504110559 45 0 0.0 1.0 0.00 0.00 0.00 54 1009.6
20260504110107 44 0 0.0 2.0 0.00 0.00 0.00 55 1009.7
20260504100559 44 0 0.0 2.0 0.00 0.00 0.00 53 1010.1
20260504100105 44 135 0.0 2.0 0.00 0.00 0.00 53 1010.1
20260504090106 44 42 0.0 2.0 0.00 0.00 0.00 52 1010.3
20260504081558 46 0 0.0 1.0 0.00 0.00 0.00 48 1010.7
20260504081058 47 0 0.0 2.0 0.00 0.00 0.00 48 1010.8
20260504080605 47 0 0.0 3.0 0.00 0.00 0.00 47 1010.8
20260504060106 51 0 0.0 6.0 0.00 0.00 0.00 42 1011.7
20260504050601 55 324 3.0 6.0 0.00 0.00 0.00 33 1011.7
20260504050107 56 315 2.0 12.0 0.00 0.00 0.00 32 1011.7
20260504045559 58 322 3.0 12.0 0.00 0.00 0.00 31 1011.7
20260504045101 58 23 2.0 6.0 0.00 0.00 0.00 32 1011.7
20260504044601 60 275 2.0 4.0 0.00 0.00 0.00 30 1011.3
20260504044058 60 294 2.0 7.0 0.00 0.00 0.00 30 1011.2
20260504043558 60 277 2.0 7.0 0.00 0.00 0.00 30 1011.3
20260504043116 61 277 1.0 7.0 0.00 0.00 0.00 29 1011.2
20260504042559 61 295 2.0 7.0 0.00 0.00 0.00 30 1011.3
20260504042058 61 279 4.0 7.0 0.00 0.00 0.00 30 1011.4
20260504041559 61 269 3.0 8.0 0.00 0.00 0.00 30 1011.4
20260504041057 61 269 4.0 10.0 0.00 0.00 0.00 30 1011.5
20260504040600 61 277 3.0 10.0 0.00 0.00 0.00 29 1011.6
20260504040103 62 286 3.0 9.0 0.00 0.00 0.00 29 1011.5
20260504035601 62 278 4.0 9.0 0.00 0.00 0.00 29 1011.5
20260504035102 62 279 4.0 10.0 0.00 0.00 0.00 29 1011.7
20260504034559 63 254 5.0 10.0 0.00 0.00 0.00 28 1011.6
20260504034058 63 265 4.0 9.0 0.00 0.00 0.00 28 1011.7
20260504033559 63 279 5.0 9.0 0.00 0.00 0.00 28 1011.6
20260504033116 63 264 2.0 7.0 0.00 0.00 0.00 29 1011.6
20260504032601 63 207 2.0 8.0 0.00 0.00 0.00 28 1011.7
20260504032059 64 240 3.0 8.0 0.00 0.00 0.00 28 1011.7
20260504031605 64 198 2.0 8.0 0.00 0.00 0.00 27 1011.7
20260504031101 64 246 2.0 8.0 0.00 0.00 0.00 27 1011.7
20260504030602 64 265 3.0 10.0 0.00 0.00 0.00 26 1011.6
20260504030100 65 271 4.0 10.0 0.00 0.00 0.00 26 1011.5
20260504025600 65 265 5.0 10.0 0.00 0.00 0.00 26 1011.5
20260504025058 65 250 4.0 11.0 0.00 0.00 0.00 26 1011.5
20260504024603 65 270 4.0 11.0 0.00 0.00 0.00 25 1011.5
20260504024105 65 248 6.0 11.0 0.00 0.00 0.00 25 1011.5
20260504023559 65 267 5.0 9.0 0.00 0.00 0.00 25 1011.5
20260504023101 65 263 5.0 9.0 0.00 0.00 0.00 25 1011.3
20260504022601 65 264 5.0 9.0 0.00 0.00 0.00 25 1011.4
20260504022058 65 275 3.0 8.0 0.00 0.00 0.00 25 1011.4
20260504021558 65 265 4.0 8.0 0.00 0.00 0.00 25 1011.4
20260504021058 65 269 4.0 8.0 0.00 0.00 0.00 25 1011.3
20260504020558 65 235 3.0 8.0 0.00 0.00 0.00 25 1011.3
20260504020100 65 240 2.0 6.0 0.00 0.00 0.00 25 1011.3
20260504015600 65 273 1.0 3.0 0.00 0.00 0.00 25 1011.3
20260504015101 65 0 0.0 3.0 0.00 0.00 0.00 26 1011.1
20260504014602 66 0 0.0 6.0 0.00 0.00 0.00 26 1011.1
20260504014100 66 263 2.0 6.0 0.00 0.00 0.00 26 1011.1
20260504013601 66 268 2.0 4.0 0.00 0.00 0.00 25 1011.1
20260504013109 66 281 2.0 8.0 0.00 0.00 0.00 24 1011.1
20260504012600 67 286 4.0 8.0 0.00 0.00 0.00 24 1011.1
20260504012101 67 292 3.0 10.0 0.00 0.00 0.00 24 1011.1
20260504011601 67 317 4.0 10.0 0.00 0.00 0.00 23 1011.1
20260504011058 67 300 3.0 10.0 0.00 0.00 0.00 24 1011.2
20260504010558 68 278 6.0 11.0 0.00 0.00 0.00 23 1011.3
20260504005559 69 280 10.0 19.0 0.00 0.00 0.00 22 1011.4
20260504005059 69 281 12.0 19.0 0.00 0.00 0.00 23 1011.6
20260504004622 69 271 12.0 18.0 0.00 0.00 0.00 23 1011.6
20260504004059 68 279 9.0 13.0 0.00 0.00 0.00 24 1011.7
20260504003558 68 271 7.0 13.0 0.00 0.00 0.00 24 1011.7
20260504003103 68 327 8.0 12.0 0.00 0.00 0.00 23 1011.7
20260504002558 68 283 6.0 11.0 0.00 0.00 0.00 24 1011.8
20260504002102 68 244 4.0 9.0 0.00 0.00 0.00 24 1011.8
20260504001608 68 250 2.0 6.0 0.00 0.00 0.00 25 1011.9
20260504001102 68 270 3.0 8.0 0.00 0.00 0.00 24 1011.9
20260504000558 68 217 2.0 13.0 0.00 0.00 0.00 24 1011.9
20260503235601 68 224 8.0 20.0 0.00 0.00 0.00 24 1012.0
20260503235103 69 251 7.0 16.0 0.00 0.00 0.00 24 1012.2
20260503234559 68 254 8.0 16.0 0.00 0.00 0.00 23 1012.2
20260503234059 68 284 8.0 18.0 0.00 0.00 0.00 24 1012.2
20260503233600 69 276 11.0 21.0 0.00 0.00 0.00 23 1012.1
20260503233059 69 331 7.0 21.0 0.00 0.00 0.00 21 1012.1
20260503232559 70 314 10.0 21.0 0.00 0.00 0.00 20 1011.9
20260503232100 71 289 7.0 13.0 0.00 0.00 0.00 20 1011.9
20260503231559 71 288 7.0 15.0 0.00 0.00 0.00 20 1011.8
20260503231101 72 296 9.0 15.0 0.00 0.00 0.00 19 1011.8
20260503230559 73 229 4.0 10.0 0.00 0.00 0.00 20 1011.8
20260503230112 74 257 6.0 12.0 0.00 0.00 0.00 20 1011.9
20260503225559 74 273 7.0 17.0 0.00 0.00 0.00 20 1011.9
20260503225100 72 297 11.0 17.0 0.00 0.00 0.00 20 1011.8
20260503224558 72 274 7.0 23.0 0.00 0.00 0.00 20 1011.8
20260503224059 73 267 12.0 23.0 0.00 0.00 0.00 19 1011.8
20260503223559 73 267 14.0 23.0 0.00 0.00 0.00 19 1011.7
20260503223101 70 325 6.0 14.0 0.00 0.00 0.00 21 1011.8
20260503222559 70 286 7.0 15.0 0.00 0.00 0.00 20 1011.8
20260503222101 71 284 8.0 19.0 0.00 0.00 0.00 20 1011.9
20260503221605 71 275 11.0 19.0 0.00 0.00 0.00 20 1011.8
20260503221103 72 273 9.0 19.0 0.00 0.00 0.00 19 1011.8
20260503220559 72 290 1.0 10.0 0.00 0.00 0.00 17 1011.8
20260503215559 70 219 4.0 29.0 0.00 0.00 0.00 20 1011.9
20260503215058 69 244 9.0 29.0 0.00 0.00 0.00 21 1012.3
20260503214610 70 269 13.0 24.0 0.00 0.00 0.00 21 1012.0
20260503214059 71 285 12.0 18.0 0.00 0.00 0.00 18 1012.2
20260503213559 72 272 6.0 12.0 0.00 0.00 0.00 16 1012.1
20260503213103 72 319 2.0 9.0 0.00 0.00 0.00 15 1012.1
20260503212559 73 338 3.0 9.0 0.00 0.00 0.00 15 1012.1
20260503212059 74 274 5.0 9.0 0.00 0.00 0.00 15 1012.1
20260503211605 75 336 5.0 15.0 0.00 0.00 0.00 15 1012.0
20260503211059 74 325 4.0 15.0 0.00 0.00 0.00 15 1012.2
20260503210559 74 243 7.0 15.0 0.00 0.00 0.00 15 1012.4
20260503210059 73 256 2.0 14.0 0.00 0.00 0.00 15 1012.4
20260503205559 74 278 9.0 14.0 0.00 0.00 0.00 14 1012.4
20260503205059 76 339 4.0 9.0 0.00 0.00 0.00 14 1012.5
20260503204601 77 5 2.0 9.0 0.00 0.00 0.00 16 1012.7
20260503204059 77 40 2.0 14.0 0.00 0.00 0.00 15 1012.8
20260503203559 75 26 5.0 14.0 0.00 0.00 0.00 16 1012.9
20260503203101 73 257 4.0 10.0 0.00 0.00 0.00 15 1013.0
20260503202601 73 277 4.0 11.0 0.00 0.00 0.00 16 1013.0
20260503202100 75 263 7.0 14.0 0.00 0.00 0.00 14 1013.0
20260503201558 76 252 3.0 14.0 0.00 0.00 0.00 15 1013.1
20260503201101 76 302 5.0 13.0 0.00 0.00 0.00 14 1013.2
20260503200559 78 123 3.0 7.0 0.00 0.00 0.00 15 1013.2
20260503200101 75 316 2.0 6.0 0.00 0.00 0.00 16 1013.2
20260503195600 74 300 1.0 9.0 0.00 0.00 0.00 16 1013.2
20260503195100 73 284 3.0 13.0 0.00 0.00 0.00 16 1013.4